Page, AZ

12:11 AM MDT on August 22, 2017 (GMT -0600)
Page Municipal

Weather History for KPGA - November, 2012

Change the Weather History Date:

Saturday, November 10, 2012

  Actual Average Record
Temperature  
Mean Temperature 42 °F -  
Max Temperature 48 °F 57 °F 75 °F (2014)
Min Temperature 34 °F 38 °F 28 °F (1998)
Degree Days  
Heating Degree Days 23    
Moisture  
Dew Point 13 °F    
Average Humidity 31    
Maximum Humidity 48    
Minimum Humidity 13    
Precipitation  
Precipitation 0.00 in - - ()
Sea Level Pressure  
Sea Level Pressure 29.78 in    
Wind  
Wind Speed 7 mph (West)    
Max Wind Speed 13 mph    
Max Gust Speed 23 mph    
Visibility 10 miles    
Events      
Averages and records for this station are not official NWS values.
T = Trace of Precipitation, MM = Missing Value Source: NWS Daily Summary

Daily Weather History Graph

Daily Weather History Graph

Search for Another Location

Airport or City:

Trip Planner

Search our weather history database for the weather conditions in past years. The results will help you decide how hot, cold, wet, or windy it might be!

Date:

Astronomy

Nov. 10, 2012 Rise Set
Actual Time 6:59 AM MST 5:19 PM MST
Civil Twilight 6:32 AM MST 5:46 PM MST
Nautical Twilight 6:01 AM MST 6:18 PM MST
Astronomical Twilight 5:30 AM MST 6:48 PM MST
Moon 3:13 AM MST (11/10) 3:04 PM MST (11/10)
Length of Visible Light 11h 14m
Length of Day
10h 19m
Waning Crescent, 14% of the Moon is Illuminated
Nov 10
Waning Crescent
Nov 13
New
Nov 20
First Quarter
Nov 28
Full
Dec 6
Last Quarter

Hourly Weather History & Observations

Time (MST) Temp. Windchill Dew Point Humidity Pressure Visibility Wind Dir Wind Speed Gust Speed Precip Events Conditions
12:53 AM 45.0 °F 40.6 °F 17.1 °F 33% 29.59 in 10.0 mi West 8.1 mph 16.1 mph N/A   Overcast
1:53 AM 44.1 °F 42.5 °F 18.0 °F 35% 29.60 in 10.0 mi South 3.5 mph - N/A   Mostly Cloudy
2:53 AM 43.0 °F 38.8 °F 16.0 °F 34% 29.59 in 10.0 mi WSW 6.9 mph - N/A   Clear
3:53 AM 41.0 °F 39.0 °F 14.0 °F 33% 29.61 in 10.0 mi SW 3.5 mph - N/A   Clear
4:53 AM 39.9 °F 36.7 °F 16.0 °F 38% 29.64 in 10.0 mi West 4.6 mph - N/A   Clear
5:53 AM 37.9 °F - 16.0 °F 41% 29.67 in 10.0 mi Calm Calm - N/A   Scattered Clouds
6:53 AM 39.9 °F 34.5 °F 12.9 °F 33% 29.69 in 10.0 mi WSW 8.1 mph 18.4 mph N/A   Clear
7:53 AM 39.9 °F 36.7 °F 14.0 °F 35% 29.73 in 10.0 mi Variable 4.6 mph 16.1 mph N/A   Scattered Clouds
8:53 AM 41.0 °F 35.2 °F 15.1 °F 35% 29.78 in 10.0 mi West 9.2 mph - N/A   Mostly Cloudy
9:53 AM 42.1 °F 38.4 °F 12.0 °F 29% 29.78 in 10.0 mi Variable 5.8 mph 18.4 mph N/A   Partly Cloudy
10:53 AM 44.1 °F 38.6 °F 10.0 °F 25% 29.79 in 10.0 mi NW 10.4 mph 18.4 mph N/A   Mostly Cloudy
11:53 AM 46.0 °F 41.4 °F 10.0 °F 23% 29.78 in 10.0 mi West 9.2 mph 21.9 mph N/A   Clear
12:53 PM 46.9 °F - 3.9 °F 17% 29.75 in 10.0 mi West 10.4 mph 23.0 mph N/A   Clear
1:53 PM 46.0 °F 40.2 °F 3.9 °F 18% 29.75 in 10.0 mi West 12.7 mph 23.0 mph N/A   Clear
2:53 PM 45.0 °F 38.9 °F 5.0 °F 19% 29.77 in 10.0 mi West 12.7 mph 21.9 mph N/A   Scattered Clouds
3:53 PM 43.0 °F 38.2 °F 7.0 °F 23% 29.80 in 10.0 mi West 8.1 mph 23.0 mph N/A   Scattered Clouds
4:53 PM 43.0 °F 38.8 °F 12.0 °F 28% 29.82 in 10.0 mi WNW 6.9 mph - N/A   Scattered Clouds
5:53 PM 39.9 °F 36.7 °F 12.0 °F 32% 29.87 in 10.0 mi West 4.6 mph - N/A   Partly Cloudy
6:53 PM 39.0 °F 35.7 °F 10.9 °F 32% 29.90 in 10.0 mi West 4.6 mph - N/A   Partly Cloudy
7:53 PM 37.0 °F 32.4 °F 15.1 °F 41% 29.92 in 10.0 mi West 5.8 mph - N/A   Clear
8:53 PM 37.4 °F 32.1 °F 15.8 °F 41% 29.94 in 10.0 mi WNW 6.9 mph - N/A   Clear
9:53 PM 36.0 °F 31.1 °F 15.1 °F 43% 29.95 in 10.0 mi West 5.8 mph - N/A   Clear
10:53 PM 36.0 °F 33.3 °F 16.0 °F 44% 29.96 in 10.0 mi WNW 3.5 mph - N/A   Clear
11:53 PM 34.0 °F 29.8 °F 16.0 °F 48% 29.97 in 10.0 mi NW 4.6 mph - N/A   Clear